Weather History for KMLF - March, 2013

Change the Weather History Date:

Tuesday, March 19, 2013

  Actual Average Record
Temperature  
Mean Temperature 48 °F -  
Max Temperature 59 °F 58 °F 78 °F (2004)
Min Temperature 36 °F 27 °F 12 °F (2014)
Degree Days  
Heating Degree Days 18    
Moisture  
Dew Point 21 °F    
Average Humidity 38    
Maximum Humidity 59    
Minimum Humidity 12    
Precipitation  
Precipitation 0.00 in - - ()
Sea Level Pressure  
Sea Level Pressure 30.08 in    
Wind  
Wind Speed 6 mph (NNE)    
Max Wind Speed 12 mph    
Max Gust Speed 21 mph    
Visibility 10 miles    
Events      
Averages and records for this station are not official NWS values.
T = Trace of Precipitation, MM = Missing Value Source: NWS Daily Summary

Daily Weather History Graph

Daily Weather History Graph

Search for Another Location

Airport or City:

Trip Planner

Search our weather history database for the weather conditions in past years. The results will help you decide how hot, cold, wet, or windy it might be!

Date:

Astronomy

Mar. 19, 2013 Rise Set
Actual Time 7:36 AM MDT 7:43 PM MDT
Civil Twilight 7:10 AM MDT 8:09 PM MDT
Nautical Twilight 6:39 AM MDT 8:40 PM MDT
Astronomical Twilight 6:08 AM MDT 9:12 PM MDT
Moon 12:34 PM MDT (3/19) 2:28 AM MDT (3/19)
Length of Visible Light 12h 59m
Length of Day
12h 06m
Waxing Crescent, 50% of the Moon is Illuminated
Mar 19
Waxing Crescent
Mar 27
Full
Apr 2
Last Quarter
Apr 10
New
Apr 18
First Quarter

Hourly Weather History & Observations

Time (MDT) Temp. Windchill Dew Point Humidity Pressure Visibility Wind Dir Wind Speed Gust Speed Precip Events Conditions
12:52 AM 37.0 °F 31.0 °F 19.9 °F 50% 29.99 in 10.0 mi WNW 8.1 mph - N/A   Clear
1:52 AM 35.1 °F - 21.9 °F 59% 30.00 in 10.0 mi Calm Calm - N/A   Clear
2:52 AM 36.0 °F 30.3 °F 21.9 °F 57% 30.01 in 10.0 mi North 6.9 mph - N/A   Clear
3:52 AM 37.0 °F 31.0 °F 21.9 °F 54% 30.00 in 10.0 mi NNE 8.1 mph - N/A   Overcast
4:52 AM 37.9 °F 30.9 °F 21.9 °F 53% 30.01 in 10.0 mi North 10.4 mph - N/A   Overcast
5:52 AM 41.0 °F 34.3 °F 19.0 °F 41% 30.01 in 10.0 mi North 11.5 mph - N/A   Overcast
6:52 AM 39.0 °F 32.8 °F 19.9 °F 46% 30.04 in 10.0 mi North 9.2 mph - N/A   Overcast
7:52 AM 39.0 °F 34.0 °F 21.9 °F 50% 30.09 in 10.0 mi North 6.9 mph - N/A   Overcast
8:52 AM 39.9 °F 37.8 °F 23.0 °F 51% 30.15 in 10.0 mi East 3.5 mph - N/A   Overcast
9:52 AM 43.0 °F 39.5 °F 21.9 °F 43% 30.16 in 10.0 mi NE 5.8 mph - N/A   Overcast
10:52 AM 46.0 °F 42.5 °F 19.9 °F 35% 30.19 in 10.0 mi NNE 6.9 mph - N/A   Partly Cloudy
11:52 AM 48.9 °F - 19.0 °F 31% 30.17 in 10.0 mi Calm Calm - N/A   Overcast
12:52 PM 52.0 °F - 19.0 °F 27% 30.16 in 10.0 mi NNE 3.5 mph - N/A   Clear
1:52 PM 54.0 °F - 19.0 °F 25% 30.13 in 10.0 mi East 5.8 mph - N/A   Clear
2:52 PM 55.9 °F - 19.9 °F 25% 30.09 in 10.0 mi NNE 9.2 mph - N/A   Clear
3:52 PM 57.0 °F - 19.0 °F 23% 30.08 in 10.0 mi Calm Calm - N/A   Clear
4:52 PM 59.0 °F - 19.9 °F 22% 30.06 in 10.0 mi NNE 11.5 mph 20.7 mph N/A   Clear
5:52 PM 57.9 °F - 19.9 °F 23% 30.04 in 10.0 mi NE 9.2 mph - N/A   Clear
6:52 PM 55.9 °F - 19.0 °F 24% 30.06 in 10.0 mi NNE 8.1 mph - N/A   Clear
7:52 PM 48.0 °F - 19.9 °F 33% 30.08 in 10.0 mi NNE 6.9 mph - N/A   Clear
8:52 PM 42.1 °F 39.2 °F 21.0 °F 43% 30.10 in 10.0 mi North 4.6 mph - N/A   Clear
9:52 PM 39.0 °F 33.4 °F 21.0 °F 49% 30.12 in 10.0 mi NW 8.1 mph - N/A   Clear
10:52 PM 37.9 °F - 23.0 °F 55% 30.12 in 10.0 mi Calm Calm - N/A   Clear
11:52 PM 36.0 °F 33.3 °F 23.0 °F 59% 30.10 in 10.0 mi West 3.5 mph - N/A   Clear